GW5942 Weather Reports


time (UTC)temp
C
wind
direction
speed
KPH
gust
KPH
rain 1hr
cm
rain 24hr
cm
rain mn
cm
humidity
%
barometer
mb
20260508214004 21 348 1.6 6.4 0.00 0.03 0.03 41 1015.4
20260508213940 21 288 4.8 12.9 0.00 0.00 0.00 45 1012.1
20260508213505 21 310 3.2 11.3 0.00 0.03 0.03 42 1015.2
20260508213018 21 174 4.8 11.3 0.00 0.03 0.03 42 1015.1
20260508212938 21 215 4.8 14.5 0.00 0.00 0.00 39 1011.9
20260508212512 21 222 4.8 11.3 0.00 0.03 0.03 43 1015.2
20260508212007 21 236 3.2 6.4 0.00 0.03 0.03 44 1015.1
20260508211526 21 44 1.6 8.0 0.00 0.03 0.03 48 1015.1
20260508211009 21 103 3.2 8.0 0.00 0.03 0.03 44 1015.1
20260508210936 22 225 1.6 8.0 0.00 0.00 0.00 41 1011.8
20260508210506 21 350 0.0 8.0 0.00 0.03 0.03 48 1015.2
20260508210016 21 310 1.6 12.9 0.00 0.03 0.03 45 1015.2
20260508205507 21 321 6.4 12.9 0.00 0.03 0.03 41 1015.3
20260508205011 21 90 3.2 8.0 0.00 0.03 0.03 47 1015.2
20260508204511 21 110 1.6 8.0 0.00 0.03 0.03 43 1015.3
20260508204007 21 229 1.6 6.4 0.00 0.03 0.03 42 1015.4
20260508203932 21 336 1.6 6.4 0.00 0.00 0.00 41 1012.1
20260508203506 21 46 3.2 11.3 0.00 0.03 0.03 44 1015.4
20260508203017 21 30 3.2 11.3 0.00 0.03 0.03 43 1015.6
20260508202932 21 226 4.8 12.9 0.00 0.00 0.00 44 1012.2
20260508202506 21 274 3.2 11.3 0.00 0.03 0.03 43 1015.6
20260508202009 21 188 3.2 9.7 0.00 0.03 0.03 45 1015.8
20260508201931 21 294 1.6 11.3 0.00 0.00 0.00 41 1012.5
20260508201522 20 292 4.8 11.3 0.00 0.03 0.03 46 1015.8
20260508201012 20 270 4.8 14.5 0.00 0.03 0.03 43 1015.9
20260508200930 21 244 3.2 9.7 0.00 0.00 0.00 40 1012.7
20260508200506 20 103 4.8 14.5 0.00 0.03 0.03 51 1016.0
20260508200026 20 308 4.8 8.0 0.00 0.03 0.03 46 1016.2
20260508195928 21 35 4.8 14.5 0.00 0.00 0.00 40 1013.0
20260508195507 20 51 4.8 11.3 0.00 0.03 0.03 44 1016.4
20260508195007 20 185 1.6 14.5 0.00 0.03 0.03 45 1016.5
20260508194522 20 50 6.4 14.5 0.00 0.03 0.03 42 1016.6
20260508194009 20 60 3.2 14.5 0.00 0.03 0.03 40 1016.7
20260508193509 21 360 8.0 14.5 0.00 0.03 0.03 41 1016.9
20260508193012 21 254 3.2 11.3 0.00 0.03 0.03 40 1017.0
20260508192926 21 282 0.0 12.9 0.00 0.00 0.00 38 1013.7
20260508192509 20 298 3.2 6.4 0.00 0.03 0.03 50 1017.0
20260508192008 20 323 3.2 12.9 0.00 0.03 0.03 47 1017.0
20260508191925 21 52 1.6 12.9 0.00 0.00 0.00 38 1013.8
20260508191511 20 251 4.8 12.9 0.00 0.03 0.03 43 1017.2
20260508191008 20 192 3.2 9.7 0.00 0.03 0.03 44 1017.2
20260508190923 21 234 4.8 8.0 0.00 0.00 0.00 37 1013.9
20260508190508 20 29 1.6 6.4 0.00 0.03 0.03 44 1017.2
20260508190035 20 40 3.2 6.4 0.00 0.03 0.03 42 1017.1
20260508185922 21 225 6.4 12.9 0.00 0.00 0.00 36 1013.9
20260508185508 20 243 1.6 6.4 0.00 0.03 0.03 45 1017.2
20260508185008 20 344 3.2 6.4 0.00 0.03 0.03 39 1017.3
20260508184922 20 165 1.6 6.4 0.00 0.00 0.00 43 1014.3
20260508184525 20 250 3.2 8.0 0.00 0.03 0.03 42 1017.3
20260508184008 20 293 1.6 12.9 0.00 0.03 0.03 43 1017.3
20260508183921 20 236 4.8 16.1 0.00 0.00 0.00 41 1014.3
20260508183509 19 241 8.0 12.9 0.00 0.03 0.03 40 1017.4
20260508183028 19 227 3.2 12.9 0.00 0.03 0.03 41 1017.4
20260508182919 20 252 4.8 11.3 0.00 0.00 0.00 38 1014.4
20260508182510 19 21 4.8 12.9 0.00 0.03 0.03 43 1017.5
20260508182006 19 352 6.4 9.7 0.00 0.03 0.03 42 1017.6
20260508181919 19 38 4.8 9.7 0.00 0.00 0.00 38 1014.5
20260508181518 19 11 1.6 8.0 0.00 0.03 0.03 40 1017.5
20260508181003 18 74 1.6 12.9 0.00 0.03 0.03 45 1017.6
20260508180917 19 100 3.2 12.9 0.00 0.00 0.00 39 1014.5
20260508180503 18 49 1.6 12.9 0.00 0.03 0.03 45 1017.6
20260508180004 18 351 3.2 11.3 0.00 0.03 0.03 49 1017.8
20260508175916 19 32 1.6 11.3 0.00 0.00 0.00 41 1014.7
20260508175502 18 76 4.8 11.3 0.00 0.03 0.03 43 1017.8
20260508175003 18 14 6.4 11.3 0.00 0.03 0.03 46 1017.8
20260508174916 19 45 3.2 9.7 0.00 0.00 0.00 44 1014.9
20260508174510 18 289 0.0 4.8 0.00 0.03 0.03 48 1017.9
20260508174003 18 206 1.6 12.9 0.00 0.03 0.03 41 1018.0
20260508173504 18 348 6.4 12.9 0.00 0.03 0.03 44 1018.1
20260508173007 18 24 4.8 12.9 0.00 0.03 0.03 49 1018.2
20260508172913 18 249 0.0 9.7 0.00 0.00 0.00 40 1015.3
20260508172511 18 352 6.4 12.9 0.00 0.03 0.03 47 1018.3
20260508172003 18 229 1.6 6.4 0.00 0.03 0.03 44 1018.3
20260508171504 18 134 1.6 8.0 0.00 0.03 0.03 43 1018.7
20260508171002 18 140 4.8 8.0 0.00 0.03 0.03 41 1018.7
20260508170911 18 85 3.2 11.3 0.00 0.00 0.00 46 1015.8
20260508170502 18 95 1.6 11.3 0.00 0.03 0.03 49 1018.8
20260508170003 18 134 1.6 11.3 0.00 0.03 0.03 49 1019.0
20260508165910 18 105 6.4 12.9 0.00 0.00 0.00 40 1016.0
20260508165503 18 352 1.6 6.4 0.00 0.03 0.03 47 1019.1
20260508165002 17 112 3.2 8.0 0.00 0.03 0.03 51 1019.2
20260508164909 18 78 6.4 12.9 0.00 0.00 0.00 42 1016.2
20260508164506 17 161 3.2 8.0 0.00 0.03 0.03 52 1019.3
20260508164004 17 330 3.2 11.3 0.00 0.03 0.03 51 1019.4
20260508163908 18 209 0.0 6.4 0.00 0.00 0.00 46 1016.4
20260508163503 17 38 4.8 11.3 0.00 0.03 0.03 47 1019.4
20260508163030 17 28 4.8 12.9 0.00 0.03 0.03 48 1019.4
20260508162907 18 46 1.6 8.0 0.00 0.00 0.00 47 1016.5
20260508162507 17 346 1.6 12.9 0.00 0.03 0.03 53 1019.5
20260508162008 17 26 4.8 12.9 0.00 0.03 0.03 52 1019.5
20260508161906 18 181 1.6 6.4 0.00 0.00 0.00 44 1016.6
20260508161513 17 186 0.0 8.0 0.00 0.03 0.03 46 1019.5
20260508161003 17 327 3.2 8.0 0.00 0.03 0.03 46 1019.6
20260508160904 17 40 3.2 6.4 0.00 0.00 0.00 45 1016.7
20260508160506 17 289 4.8 9.7 0.00 0.03 0.03 51 1019.7
20260508160004 17 289 4.8 11.3 0.00 0.03 0.03 45 1019.8
20260508155904 17 298 3.2 9.7 0.00 0.00 0.00 40 1017.0
20260508155503 17 244 3.2 11.3 0.00 0.03 0.03 50 1019.9
20260508155003 17 87 1.6 6.4 0.00 0.03 0.03 47 1019.9
20260508154903 17 106 0.0 9.7 0.00 0.00 0.00 39 1017.1
20260508154504 16 33 0.0 4.8 0.00 0.03 0.03 62 1019.9
20260508154006 16 69 1.6 4.8 0.00 0.03 0.03 55 1020.0
20260508153902 16 121 6.4 8.0 0.00 0.00 0.00 47 1017.2
20260508153504 16 32 1.6 4.8 0.00 0.03 0.03 64 1020.0
20260508153009 16 71 1.6 4.8 0.00 0.05 0.03 66 1020.0
20260508152901 16 336 3.2 6.4 0.00 0.00 0.00 52 1017.3
20260508152503 15 329 3.2 11.3 0.00 0.05 0.03 61 1020.1
20260508152003 15 26 3.2 11.3 0.00 0.05 0.03 60 1020.1
20260508151900 16 109 4.8 6.4 0.00 0.00 0.00 59 1017.4
20260508151519 15 206 3.2 6.4 0.00 0.05 0.03 65 1020.2
20260508151007 15 22 1.6 6.4 0.00 0.05 0.03 67 1020.1
20260508150858 16 61 4.8 8.0 0.00 0.00 0.00 63 1017.4
20260508150507 15 23 1.6 11.3 0.00 0.05 0.03 68 1020.1
20260508150008 15 32 4.8 11.3 0.00 0.05 0.03 68 1020.2
20260508145858 15 17 3.2 6.4 0.00 0.00 0.00 64 1017.5
20260508145504 15 296 1.6 8.0 0.00 0.05 0.03 70 1020.3
20260508145008 15 352 4.8 12.9 0.00 0.05 0.03 72 1020.3
20260508144857 15 273 0.0 14.5 0.00 0.00 0.00 69 1017.5
20260508144504 14 336 6.4 12.9 0.00 0.05 0.03 69 1020.3
20260508144004 14 349 0.0 6.4 0.00 0.05 0.03 71 1020.3
20260508143856 15 137 4.8 12.9 0.00 0.00 0.00 67 1017.6
20260508143507 14 33 1.6 8.0 0.00 0.05 0.03 67 1020.4
20260508143003 14 46 6.4 8.0 0.00 0.05 0.03 75 1020.4
20260508142854 14 49 6.4 6.4 0.00 0.00 0.00 70 1017.6
20260508142504 14 16 1.6 4.8 0.00 0.08 0.03 81 1020.4
20260508142003 13 352 3.2 4.8 0.00 0.08 0.03 79 1020.4
20260508141854 14 332 3.2 4.8 0.00 0.00 0.00 72 1017.7
20260508141511 13 25 1.6 8.0 0.00 0.08 0.03 77 1020.4
20260508141003 13 42 1.6 8.0 0.00 0.08 0.03 78 1020.5
20260508140852 14 46 3.2 6.4 0.00 0.00 0.00 75 1017.7
20260508140507 13 40 3.2 4.8 0.00 0.08 0.03 81 1020.5
20260508140014 13 84 0.0 3.2 0.00 0.08 0.03 85 1020.4
20260508135851 13 80 3.2 6.4 0.00 0.00 0.00 78 1017.8
20260508135512 12 104 1.6 4.8 0.00 0.08 0.03 89 1020.5
20260508135007 12 145 1.6 4.8 0.00 0.08 0.03 90 1020.5
20260508134850 12 149 1.6 8.0 0.00 0.00 0.00 81 1017.7
20260508134515 12 161 3.2 4.8 0.00 0.08 0.03 92 1020.4
20260508134008 11 98 1.6 4.8 0.00 0.08 0.03 94 1020.5
20260508133850 12 129 3.2 4.8 0.00 0.00 0.00 86 1017.8
20260508133509 11 77 0.0 4.8 0.00 0.08 0.03 95 1020.4
20260508133004 11 95 1.6 4.8 0.00 0.08 0.03 96 1020.5
20260508132849 11 148 1.6 3.2 0.00 0.00 0.00 91 1017.7
20260508132502 11 122 3.2 4.8 0.00 0.08 0.03 96 1020.4
20260508132003 10 228 1.6 4.8 0.00 0.08 0.03 96 1020.3
20260508131848 11 148 0.0 4.8 0.00 0.00 0.00 93 1017.6
20260508131506 10 126 1.6 4.8 0.00 0.10 0.03 96 1020.3
20260508131004 10 143 3.2 4.8 0.00 0.10 0.03 96 1020.3
20260508130846 10 102 3.2 4.8 0.00 0.00 0.00 95 1017.6
20260508130503 10 96 1.6 4.8 0.00 0.10 0.03 96 1020.3
20260508130003 10 128 1.6 3.2 0.00 0.13 0.03 96 1020.5
20260508125845 10 82 0.0 6.4 0.00 0.00 0.00 95 1017.8
20260508125506 9 119 0.0 4.8 0.00 0.13 0.03 96 1020.5
20260508125008 9 103 1.6 4.8 0.00 0.13 0.03 96 1020.4
20260508124518 9 129 3.2 4.8 0.00 0.13 0.03 96 1020.4
20260508124004 9 123 1.6 4.8 0.00 0.13 0.03 96 1020.4
20260508123843 9 122 3.2 6.4 0.00 0.00 0.00 96 1017.7
20260508123504 8 101 0.0 4.8 0.00 0.13 0.03 96 1020.4
20260508123032 8 107 4.8 6.4 0.00 0.13 0.03 96 1020.4
20260508122842 8 136 1.6 6.4 0.00 0.00 0.00 96 1017.6
20260508122508 8 136 3.2 6.4 0.00 0.13 0.03 96 1020.4
20260508122007 8 136 4.8 6.4 0.00 0.13 0.03 96 1020.3
20260508121841 8 100 4.8 9.7 0.00 0.00 0.00 96 1017.5
20260508121507 7 119 4.8 6.4 0.00 0.13 0.03 96 1020.3
20260508121003 7 140 3.2 4.8 0.00 0.13 0.03 96 1020.1
20260508120840 7 127 4.8 4.8 0.00 0.00 0.00 96 1017.4
20260508120502 7 101 1.6 3.2 0.00 0.13 0.03 96 1020.1
20260508120009 7 112 1.6 4.8 0.00 0.13 0.03 96 1020.0
20260508115839 7 127 4.8 4.8 0.00 0.00 0.00 95 1017.3
20260508115510 7 115 1.6 6.4 0.00 0.13 0.03 96 1020.0
20260508115005 7 148 3.2 6.4 0.00 0.13 0.03 95 1019.9
20260508114838 7 127 4.8 6.4 0.00 0.00 0.00 95 1017.2
20260508114509 7 128 4.8 6.4 0.00 0.13 0.03 95 1019.8
20260508114007 7 111 1.6 6.4 0.00 0.13 0.03 95 1019.8
20260508113837 7 128 3.2 6.4 0.00 0.00 0.00 95 1017.0
20260508113508 6 142 3.2 6.4 0.00 0.13 0.03 95 1019.7
20260508113022 6 144 4.8 6.4 0.00 0.13 0.03 95 1019.7
20260508112836 7 129 1.6 4.8 0.00 0.00 0.00 95 1016.8
20260508112508 6 146 1.6 4.8 0.00 0.13 0.03 95 1019.6
20260508112009 6 157 3.2 4.8 0.00 0.13 0.03 95 1019.5
20260508111835 7 111 4.8 4.8 0.00 0.00 0.00 94 1016.6
20260508111525 6 146 3.2 4.8 0.00 0.13 0.03 95 1019.3
20260508111006 6 187 0.0 3.2 0.00 0.13 0.03 95 1019.2
20260508110834 7 111 0.0 3.2 0.00 0.00 0.00 94 1016.4
20260508110507 6 192 1.6 3.2 0.00 0.13 0.03 95 1019.3
20260508110006 6 182 1.6 3.2 0.00 0.13 0.03 95 1019.2
20260508105833 7 111 0.0 1.6 0.00 0.00 0.00 94 1016.4
20260508105506 6 188 1.6 3.2 0.00 0.13 0.03 95 1019.1
20260508105005 7 185 1.6 3.2 0.00 0.15 0.03 95 1019.1
20260508104513 7 185 1.6 3.2 0.00 0.15 0.03 95 1018.9
20260508104005 7 179 3.2 3.2 0.00 0.15 0.03 95 1018.9
20260508103503 7 171 0.0 0.0 0.00 0.15 0.03 95 1018.9
20260508103013 7 171 0.0 0.0 0.00 0.15 0.03 95 1018.8
20260508102830 8 111 0.0 0.0 0.00 0.00 0.00 95 1016.1
20260508102510 7 171 0.0 0.0 0.00 0.15 0.03 95 1018.7
20260508102010 7 171 0.0 0.0 0.00 0.15 0.03 95 1018.8
20260508101830 8 111 0.0 1.6 0.00 0.00 0.00 95 1016.0
20260508101524 7 171 0.0 0.0 0.00 0.15 0.03 95 1018.7
20260508101007 7 171 0.0 0.0 0.00 0.15 0.03 95 1018.6
20260508100828 8 90 0.0 0.0 0.00 0.00 0.00 95 1015.7
20260508100509 7 171 0.0 0.0 0.00 0.15 0.03 95 1018.5
20260508100027 7 171 0.0 0.0 0.00 0.15 0.03 95 1018.5
20260508095827 7 90 0.0 0.0 0.00 0.00 0.00 95 1015.7
20260508095507 7 171 0.0 0.0 0.00 0.18 0.03 95 1018.5
20260508095009 7 171 0.0 0.0 0.00 0.18 0.03 95 1018.5
20260508094826 7 90 0.0 0.0 0.00 0.00 0.00 95 1015.7
20260508094510 7 171 0.0 0.0 0.00 0.18 0.03 95 1018.3
20260508094006 7 171 0.0 0.0 0.00 0.18 0.03 95 1018.3
20260508093506 7 171 0.0 0.0 0.00 0.18 0.03 95 1018.2
20260508093037 7 171 0.0 0.0 0.00 0.18 0.03 95 1018.2
20260508092824 7 90 0.0 0.0 0.00 0.00 0.00 95 1015.5
20260508092506 7 171 0.0 3.2 0.00 0.18 0.03 95 1018.2
20260508092006 7 171 0.0 3.2 0.00 0.18 0.03 95 1018.3
20260508091823 7 90 0.0 3.2 0.00 0.00 0.00 94 1015.5
20260508091525 7 171 0.0 3.2 0.00 0.20 0.03 95 1018.3
20260508091009 7 171 0.0 3.2 0.00 0.25 0.03 95 1018.3
20260508090822 7 90 0.0 1.6 0.00 0.00 0.00 94 1015.5
20260508090502 7 171 0.0 3.2 0.00 0.25 0.03 95 1018.3
20260508090009 7 171 0.0 3.2 0.00 0.25 0.03 95 1018.2
20260508085820 7 90 0.0 1.6 0.00 0.00 0.00 94 1015.4
20260508085503 7 171 0.0 3.2 0.00 0.28 0.03 95 1018.2
20260508085003 7 171 0.0 3.2 0.00 0.28 0.03 95 1018.1
20260508084819 7 90 0.0 1.6 0.00 0.00 0.00 94 1015.3
20260508084508 7 171 0.0 3.2 0.00 0.30 0.03 95 1018.1
20260508084005 7 178 0.0 3.2 0.00 0.30 0.03 95 1018.2
20260508083818 8 90 0.0 1.6 0.00 0.00 0.00 94 1015.3
20260508083503 7 179 1.6 3.2 0.00 0.30 0.03 95 1018.1
20260508083020 7 145 0.0 3.2 0.00 0.30 0.03 95 1018.0
20260508082818 8 90 0.0 0.0 0.00 0.00 0.00 94 1015.2
20260508082506 7 145 0.0 3.2 0.03 0.33 0.03 95 1018.1
20260508082003 7 155 0.0 3.2 0.03 0.33 0.03 95 1018.2
20260508081817 8 90 0.0 0.0 0.00 0.00 0.00 95 1015.4
20260508081509 7 155 0.0 3.2 0.03 0.33 0.03 95 1018.1
20260508081002 7 155 1.6 3.2 0.03 0.33 0.03 95 1018.1
20260508080815 8 90 0.0 0.0 0.00 0.00 0.00 95 1015.2
20260508080505 7 134 0.0 3.2 0.03 0.33 0.03 95 1018.1
20260508080004 7 134 0.0 3.2 0.03 0.33 0.03 95 1018.2
20260508075815 8 90 0.0 0.0 0.00 0.00 0.00 95 1015.4
20260508075503 7 125 1.6 3.2 0.03 0.33 0.03 95 1018.2
20260508075002 7 140 1.6 3.2 0.03 0.33 0.03 95 1018.2
20260508074813 8 90 0.0 1.6 0.00 0.00 0.00 95 1015.4
20260508074512 7 118 0.0 3.2 0.03 0.36 0.03 95 1018.3
20260508074004 7 134 0.0 0.0 0.03 0.36 0.03 95 1018.3
20260508073813 8 90 0.0 0.0 0.00 0.00 0.00 95 1015.4
20260508073507 7 134 0.0 0.0 0.03 0.36 0.03 95 1018.3
20260508073005 7 134 0.0 1.6 0.03 0.36 0.03 95 1018.2
20260508072503 7 134 0.0 3.2 0.00 0.33 0.00 95 1018.2
20260508072007 7 139 0.0 3.2 0.00 0.33 0.00 95 1018.3
20260508071810 7 90 0.0 1.6 0.00 0.00 0.00 94 1015.3
20260508071517 7 139 1.6 3.2 0.00 0.33 0.00 95 1018.2
20260508071003 7 122 1.6 3.2 0.00 0.33 0.00 95 1018.2
20260508070809 7 90 3.2 3.2 0.00 0.00 0.00 94 1015.2
20260508070504 7 111 1.6 3.2 0.00 0.33 0.00 95 1018.2
20260508070018 7 111 0.0 0.0 0.00 0.33 0.00 95 1018.1
20260508065809 8 90 0.0 0.0 0.00 0.00 0.00 94 1015.1
20260508065503 7 111 0.0 0.0 0.00 0.33 0.00 95 1018.2
20260508065004 7 111 0.0 0.0 0.00 0.33 0.00 95 1018.0
20260508064807 8 90 0.0 0.0 0.00 0.00 0.00 94 1015.0
20260508064511 7 111 0.0 3.2 0.00 0.33 0.00 95 1018.1
20260508064003 7 111 0.0 3.2 0.00 0.33 0.00 95 1018.1
20260508063806 8 90 0.0 0.0 0.00 0.00 0.00 94 1015.1
20260508063506 7 111 0.0 3.2 0.00 0.33 0.00 95 1018.2
20260508063010 7 111 0.0 0.0 0.00 0.33 0.00 95 1018.3
20260508062806 8 90 0.0 1.6 0.00 0.00 0.00 94 1015.2
20260508062507 7 111 0.0 0.0 0.00 0.33 0.00 95 1018.2
20260508062007 7 111 0.0 0.0 0.00 0.33 0.00 95 1018.3
20260508061804 8 90 0.0 0.0 0.00 0.00 0.00 94 1015.2
20260508061508 7 111 0.0 0.0 0.00 0.33 0.00 95 1018.2
20260508061009 7 111 0.0 0.0 0.00 0.33 0.00 95 1018.3
20260508060804 8 90 0.0 0.0 0.00 0.00 0.00 94 1015.3
20260508060508 7 111 0.0 0.0 0.00 0.36 0.00 95 1018.3
20260508060017 7 111 0.0 0.0 0.00 0.36 0.00 95 1018.3
20260508055803 8 90 0.0 0.0 0.00 0.00 0.00 95 1015.3
20260508055503 7 111 0.0 0.0 0.00 0.36 0.00 95 1018.4
20260508055011 7 111 0.0 0.0 0.00 0.38 0.00 95 1018.5
20260508054801 8 90 0.0 0.0 0.00 0.00 0.00 94 1015.4
20260508054523 7 111 0.0 0.0 0.00 0.41 0.00 95 1018.4
20260508054003 7 111 0.0 0.0 0.00 0.41 0.00 95 1018.4
20260508053503 7 111 0.0 0.0 0.00 0.41 0.00 94 1018.5
20260508053009 7 111 0.0 3.2 0.00 0.41 0.00 94 1018.4
20260508052759 7 90 0.0 0.0 0.00 0.00 0.00 94 1015.4
20260508052507 7 111 0.0 3.2 0.00 0.41 0.00 94 1018.4
20260508052004 7 111 0.0 3.2 0.00 0.41 0.00 94 1018.4
20260508051758 7 90 0.0 1.6 0.00 0.00 0.00 93 1015.3
20260508051514 7 111 0.0 3.2 0.00 0.41 0.00 94 1018.4
20260508051007 7 111 0.0 0.0 0.00 0.41 0.00 94 1018.4
20260508050757 7 90 0.0 1.6 0.00 0.00 0.00 93 1015.2
20260508050505 7 111 0.0 1.6 0.00 0.41 0.00 94 1018.3
20260508050013 7 111 0.0 1.6 0.00 0.41 0.00 94 1018.3
20260508045756 7 90 0.0 0.0 0.00 0.00 0.00 93 1015.1
20260508045506 7 111 0.0 1.6 0.00 0.41 0.00 94 1018.3
20260508045006 7 111 0.0 1.6 0.00 0.41 0.00 94 1018.1
20260508044755 7 90 0.0 0.0 0.00 0.00 0.00 93 1014.9
20260508044513 7 111 0.0 3.2 0.00 0.41 0.00 94 1018.1
20260508044004 7 111 0.0 3.2 0.00 0.41 0.00 94 1018.1
20260508043754 7 90 0.0 1.6 0.00 0.00 0.00 93 1014.8
20260508043510 7 111 0.0 3.2 0.00 0.41 0.00 94 1018.0
20260508043027 7 111 1.6 3.2 0.00 0.41 0.00 94 1018.0
20260508042508 7 111 0.0 1.6 0.00 0.41 0.00 94 1018.0
20260508042003 7 111 1.6 1.6 0.00 0.41 0.00 94 1017.8
20260508041752 7 90 1.6 1.6 0.00 0.00 0.00 93 1014.6
20260508041511 7 111 1.6 1.6 0.00 0.41 0.00 94 1017.9
20260508041007 7 111 1.6 3.2 0.00 0.41 0.00 94 1017.8
20260508040751 8 90 0.0 0.0 0.00 0.00 0.00 92 1014.5
20260508040507 7 111 0.0 3.2 0.00 0.41 0.00 94 1017.8
20260508040018 8 111 0.0 0.0 0.00 0.41 0.00 94 1017.8
20260508035750 8 90 0.0 0.0 0.00 0.00 0.48 92 1014.4
20260508035506 8 111 0.0 3.2 0.00 0.41 0.41 94 1017.7
20260508035007 8 111 0.0 3.2 0.00 0.41 0.41 94 1017.6
20260508034748 8 90 0.0 0.0 0.00 0.00 0.48 92 1014.3
20260508034521 8 111 0.0 3.2 0.00 0.43 0.41 94 1017.7
20260508034009 8 111 1.6 3.2 0.00 0.43 0.41 94 1017.6
20260508033747 8 90 1.6 3.2 0.00 0.00 0.48 92 1014.4
20260508033509 8 111 0.0 3.2 0.00 0.43 0.41 94 1017.6
20260508033024 8 112 0.0 0.0 0.00 0.43 0.41 93 1017.6
20260508032747 8 90 1.6 1.6 0.00 0.00 0.48 92 1014.3
20260508032513 8 94 0.0 0.0 0.00 0.43 0.41 93 1017.6
20260508032008 8 94 0.0 0.0 0.00 0.43 0.41 93 1017.6
20260508031745 8 90 0.0 0.0 0.00 0.00 0.48 92 1014.4
20260508031514 8 94 0.0 0.0 0.00 0.43 0.41 93 1017.8
20260508031006 8 94 0.0 0.0 0.00 0.43 0.41 93 1017.8
20260508030506 8 94 0.0 0.0 0.00 0.43 0.41 93 1017.7
20260508030016 8 94 0.0 0.0 0.00 0.43 0.41 93 1017.8
20260508025743 8 90 0.0 0.0 0.00 0.00 0.48 91 1014.4
20260508025503 8 94 0.0 0.0 0.00 0.43 0.41 93 1017.7
20260508025006 8 94 0.0 1.6 0.00 0.43 0.41 93 1017.6
20260508024743 8 90 0.0 3.2 0.00 0.00 0.48 91 1014.1
20260508024520 8 94 0.0 3.2 0.00 0.43 0.41 93 1017.5
20260508024006 8 94 1.6 3.2 0.00 0.43 0.41 93 1017.5
20260508023741 8 90 1.6 3.2 0.00 0.00 0.48 91 1014.2
20260508023508 8 122 0.0 0.0 0.00 0.43 0.41 93 1017.4
20260508023036 8 122 0.0 0.0 0.00 0.43 0.41 93 1017.3
20260508022741 9 90 0.0 0.0 0.00 0.00 0.48 91 1013.9
20260508022508 8 122 0.0 0.0 0.00 0.43 0.41 93 1017.2
20260508022004 9 122 0.0 0.0 0.00 0.43 0.41 93 1017.1
20260508021740 9 90 0.0 0.0 0.00 0.00 0.48 91 1013.7
20260508021524 9 122 0.0 0.0 0.00 0.46 0.41 93 1017.1
20260508021008 9 122 0.0 0.0 0.00 0.46 0.41 92 1017.1
20260508020738 9 90 0.0 0.0 0.00 0.00 0.48 90 1013.8
20260508020514 9 122 0.0 0.0 0.00 0.46 0.41 93 1017.2
20260508020022 9 122 0.0 0.0 0.00 0.46 0.41 92 1017.0
20260508015737 10 90 0.0 0.0 0.00 0.00 0.48 90 1013.6
20260508015509 9 125 0.0 1.6 0.00 0.46 0.41 92 1017.0
20260508015010 9 124 0.0 3.2 0.00 0.46 0.41 92 1016.8
20260508014737 10 90 0.0 0.0 0.00 0.00 0.48 89 1013.5
20260508014516 9 124 0.0 3.2 0.00 0.46 0.41 92 1016.9
20260508014009 10 124 0.0 1.6 0.00 0.46 0.41 92 1016.7
20260508013735 10 90 0.0 0.0 0.00 0.00 0.48 89 1013.1
20260508013508 10 124 0.0 1.6 0.00 0.48 0.41 92 1016.6
20260508013023 10 124 0.0 1.6 0.00 0.51 0.41 92 1016.5
20260508012506 10 124 1.6 1.6 0.00 0.53 0.41 91 1016.4
20260508012009 10 127 1.6 1.6 0.00 0.56 0.41 90 1016.5
20260508011525 10 136 1.6 3.2 0.00 0.58 0.41 90 1016.4
20260508011011 10 194 0.0 3.2 0.00 0.66 0.41 89 1016.4
20260508010734 11 90 0.0 0.0 0.00 0.00 0.48 87 1012.8
20260508010506 10 194 0.0 3.2 0.00 0.69 0.41 89 1016.3
20260508010037 11 194 0.0 3.2 0.00 0.74 0.41 89 1016.2
20260508005731 11 90 0.0 1.6 0.00 0.00 0.48 86 1012.5
20260508005508 11 194 0.0 3.2 0.00 0.76 0.41 88 1016.2
20260508005013 11 194 0.0 3.2 0.00 0.76 0.41 88 1016.2
20260508004730 11 90 0.0 1.6 0.00 0.00 0.48 87 1012.5
20260508004525 11 194 0.0 3.2 0.00 0.76 0.41 88 1016.0
20260508004013 11 194 0.0 1.6 0.00 0.79 0.41 87 1015.9
20260508003729 12 87 0.0 3.2 0.00 0.00 0.48 87 1012.4
20260508003515 12 194 0.0 1.6 0.00 0.84 0.41 86 1015.9
20260508003022 12 215 1.6 1.6 0.00 0.89 0.41 86 1015.8
20260508002728 12 94 0.0 0.0 0.00 0.00 0.48 86 1012.3
20260508002507 12 143 0.0 3.2 0.00 0.89 0.41 86 1015.8
20260508002006 12 143 0.0 3.2 0.00 0.91 0.41 86 1015.8
20260508001727 13 94 0.0 1.6 0.00 0.00 0.48 85 1012.1
20260508001505 12 143 0.0 3.2 0.00 0.91 0.41 85 1015.7
20260508001003 12 131 1.6 6.4 0.00 0.91 0.41 85 1015.8
20260508000726 13 94 0.0 1.6 0.00 0.00 0.48 84 1012.1
20260508000504 12 134 1.6 6.4 0.00 0.91 0.41 85 1015.8
20260508000007 12 159 1.6 3.2 0.00 0.91 0.41 84 1015.8
20260507235507 13 209 0.0 3.2 0.00 0.91 0.41 84 1015.8
20260507235005 13 225 0.0 3.2 0.00 0.91 0.41 84 1015.8
20260507234725 13 94 0.0 1.6 0.00 0.00 0.48 83 1012.3
20260507234508 13 212 0.0 3.2 0.00 0.91 0.41 84 1016.0
20260507234002 13 219 0.0 4.8 0.00 0.94 0.41 84 1015.9
20260507233723 13 94 0.0 3.2 0.00 0.00 0.48 83 1012.2
20260507233503 13 150 0.0 6.4 0.00 0.94 0.41 84 1015.9
20260507233003 13 142 3.2 9.7 0.00 0.94 0.41 84 1016.0
20260507232722 13 94 1.6 4.8 0.00 0.00 0.48 84 1012.3
20260507232503 13 138 3.2 9.7 0.00 0.94 0.41 84 1016.1
20260507232002 13 84 1.6 9.7 0.00 0.94 0.41 85 1016.0
20260507231721 13 94 0.0 8.0 0.00 0.00 0.48 85 1012.1
20260507231504 13 135 3.2 9.7 0.00 0.94 0.41 85 1016.0
20260507231004 13 126 1.6 6.4 0.00 0.94 0.41 85 1016.0
20260507230721 13 111 1.6 6.4 0.00 0.00 0.48 83 1012.3
20260507230502 13 173 3.2 9.7 0.00 0.97 0.41 84 1016.1
20260507230005 13 136 4.8 9.7 0.00 0.97 0.41 84 1016.1
20260507225719 14 143 1.6 6.4 0.00 0.00 0.48 83 1012.3
20260507225504 13 136 4.8 8.0 0.00 0.97 0.41 83 1016.3
20260507225004 13 100 1.6 4.8 0.00 0.99 0.41 85 1016.2
20260507224504 13 188 3.2 6.4 0.00 1.02 0.41 85 1016.3
20260507224004 13 154 1.6 6.4 0.00 1.02 0.41 84 1016.3
20260507223716 13 163 3.2 4.8 0.00 0.00 0.48 83 1012.5
20260507223504 13 144 1.6 6.4 0.00 1.02 0.41 82 1016.4
20260507223013 13 169 3.2 8.0 0.00 1.02 0.41 82 1016.3
20260507222715 14 198 0.0 6.4 0.00 0.00 0.48 82 1012.4
20260507222504 13 223 1.6 8.0 0.00 1.02 0.41 82 1016.3
20260507222009 13 157 3.2 6.4 0.00 1.02 0.41 83 1016.3
20260507221715 14 97 4.8 9.7 0.00 0.00 0.48 82 1012.4
20260507221503 13 155 3.2 6.4 0.00 1.02 0.41 83 1016.2
20260507221002 13 155 3.2 8.0 0.00 1.02 0.41 82 1016.1
20260507220713 14 113 0.0 8.0 0.00 0.00 0.48 80 1012.2
20260507220509 13 209 3.2 8.0 0.00 1.02 0.41 82 1016.1
20260507220005 13 142 3.2 6.4 0.00 1.02 0.41 83 1016.1
20260507215713 14 137 3.2 4.8 0.00 0.00 0.48 81 1012.2
20260507215507 13 162 3.2 6.4 0.00 1.02 0.41 82 1016.0
20260507215003 13 146 3.2 6.4 0.00 1.02 0.41 82 1016.0
20260507214711 14 141 0.0 4.8 0.00 0.00 0.48 80 1012.1
20260507214508 13 215 1.6 6.4 0.00 1.02 0.41 82 1016.0